DW6614 Weather Reports


time (UTC)temp
F
wind
direction
speed
knots
gust
knots
rain 1hr
in
rain 24hr
in
rain mn
in
humidity
%
barometer
mb
20260502151535 0 101 3.5 0.0 0.00 0.00 0.00 1010.1
20260502123050 0 115 0.0 0.0 0.00 0.00 0.00 1008.7
20260502121550 0 115 0.0 0.0 0.00 0.00 0.00 1008.6
20260502114534 0 78 0.0 0.0 0.00 0.00 0.00 1008.3
20260502113030 0 84 2.6 0.0 0.00 0.00 0.00 1008.2
20260502111526 0 83 2.6 0.0 0.00 0.00 0.00 1008.1
20260502110026 0 90 4.3 0.0 0.00 0.00 0.00 1008.1
20260502104517 0 93 3.5 0.0 0.00 0.00 0.00 1008.2
20260502103012 0 90 1.7 0.0 0.00 0.00 0.00 1008.0
20260502101512 0 88 2.6 0.0 0.00 0.00 0.00 1008.2
20260502071516 0 75 1.7 0.0 0.00 0.00 0.00 1008.1
20260502070019 0 84 0.9 0.0 0.00 0.00 0.00 1008.0
20260502064506 0 83 0.0 0.0 0.00 0.00 0.00 1007.9
20260502063005 0 83 0.0 0.0 0.00 0.00 0.00 1007.9
20260502061558 0 83 0.0 0.0 0.00 0.00 0.00 1007.7
20260502060055 0 82 0.9 0.0 0.00 0.00 0.00 1007.5
20260502054551 0 88 1.7 0.0 0.00 0.00 0.00 1007.4
20260502053045 0 47 0.9 0.0 0.00 0.00 0.00 1007.3
20260502051540 0 98 0.9 0.0 0.00 0.00 0.00 1007.2
20260502050036 0 79 0.9 0.0 0.00 0.00 0.00 1007.1
20260502044532 0 44 0.9 0.0 0.00 0.00 0.00 1006.8
20260502043027 0 59 0.0 0.0 0.00 0.00 0.00 1006.8
20260502041522 0 60 0.9 0.0 0.00 0.00 0.00 1006.6
20260502040018 0 87 0.0 0.0 0.00 0.00 0.00 1006.4
20260502034514 0 106 3.5 0.0 0.00 0.00 0.00 1006.3
20260502033010 0 109 4.3 0.0 0.00 0.00 0.00 1006.0
20260502031505 0 88 3.5 0.0 0.00 0.00 0.00 1005.8
20260502030001 0 88 3.5 0.0 0.00 0.00 0.00 1005.6
20260502024557 0 86 6.1 0.0 0.00 0.00 0.00 1005.5
20260502023055 0 82 7.0 0.0 0.00 0.00 0.00 1005.3
20260502021548 0 58 7.0 0.0 0.00 0.00 0.00 1005.2
20260502020045 0 97 7.0 0.0 0.00 0.00 0.00 1004.9
20260502014548 0 82 6.1 0.0 0.00 0.00 0.00 1004.8
20260502013047 0 62 7.0 0.0 0.00 0.00 0.00 1004.6
20260502011543 0 66 7.8 0.0 0.00 0.00 0.00 1004.6
20260502010050 0 64 7.0 0.0 0.00 0.00 0.00 1004.5
20260502004601 0 100 7.0 0.0 0.00 0.00 0.00 1004.5
20260502003041 0 91 8.7 0.0 0.00 0.00 0.00 1004.5
20260502001541 0 83 7.0 0.0 0.00 0.00 0.00 1004.5
20260502000051 0 74 7.8 0.0 0.00 0.00 0.00 1004.6
20260501234540 0 84 7.8 0.0 0.00 0.00 0.00 1004.6
20260501233042 0 87 7.8 0.0 0.00 0.00 0.00 1004.6
20260501231541 0 53 6.1 0.0 0.00 0.00 0.00 1004.8
20260501230039 0 83 9.6 0.0 0.00 0.00 0.00 1004.9
20260501224540 0 64 7.0 0.0 0.00 0.00 0.00 1005.0
20260501223038 0 123 7.8 0.0 0.00 0.00 0.00 1005.3
20260501221535 0 63 7.0 0.0 0.00 0.00 0.00 1005.4
20260501220031 0 46 8.7 0.0 0.00 0.00 0.00 1005.6
20260501214526 0 53 8.7 0.0 0.00 0.00 0.00 1005.8
20260501213022 0 69 8.7 0.0 0.00 0.00 0.00 1006.0
20260501211525 0 36 6.1 0.0 0.00 0.00 0.00 1006.3
20260501210013 0 53 7.0 0.0 0.00 0.00 0.00 1006.5
20260501204509 0 51 7.8 0.0 0.00 0.00 0.00 1006.6
20260501203005 0 19 6.1 0.0 0.00 0.00 0.00 1006.6
20260501201601 0 116 7.0 0.0 0.00 0.00 0.00 1006.8
20260501200056 0 56 7.8 0.0 0.00 0.00 0.00 1006.9
20260501194556 0 34 8.7 0.0 0.00 0.00 0.00 1007.0
20260501193047 0 71 7.0 0.0 0.00 0.00 0.00 1007.2
20260501191542 0 58 7.8 0.0 0.00 0.00 0.00 1007.4
20260501190038 0 57 7.0 0.0 0.00 0.00 0.00 1007.7
20260501184534 0 74 7.8 0.0 0.00 0.00 0.00 1007.8
20260501183030 0 80 7.8 0.0 0.00 0.00 0.00 1008.0
20260501181525 0 110 7.8 0.0 0.00 0.00 0.00 1008.0
20260501180029 0 84 8.7 0.0 0.00 0.00 0.00 1008.2
20260501174521 0 64 8.7 0.0 0.00 0.00 0.00 1008.3
20260501173012 0 62 9.6 0.0 0.00 0.00 0.00 1008.3
20260501171507 0 28 9.6 0.0 0.00 0.00 0.00 1008.4
20260501170005 0 87 9.6 0.0 0.00 0.00 0.00 1008.4
20260501164613 0 26 9.6 0.0 0.00 0.00 0.00 1008.4
20260501163105 0 63 10.4 0.0 0.00 0.00 0.00 1008.4
20260501161553 0 99 9.6 0.0 0.00 0.00 0.00 1008.4
20260501160048 0 61 9.6 0.0 0.00 0.00 0.00 1008.2
20260501154611 0 90 8.7 0.0 0.00 0.00 0.00 1008.1